Location: NJAA Observatory
(40.6819°N, 74.8979°W)
Time: 08:54:36
(UTC-04:00)

Cosmos 2263 Rocket - Visible Passes

Search period start: 26 September 2017 00:00
Search period end: 06 October 2017 00:00
Orbit: 822 x 850 km, 71.0° (Epoch: 25 September)

Date Brightness Start Highest point End Pass type
(mag) Time Alt. Az. Time Alt. Az. Time Alt. Az.
26 Sep 2.4 04:08:41 67° NE 04:08:41 67° NE 04:13:36 10° NNE visible
26 Sep 3.8 05:50:24 14° WNW 05:52:32 16° NW 05:56:03 10° N visible
27 Sep 3.0 03:52:49 48° NE 03:52:49 48° NE 03:56:52 10° NNE visible
27 Sep 3.7 05:34:32 17° WNW 05:35:44 18° NW 05:39:29 10° N visible
28 Sep 3.6 03:36:53 35° NE 03:36:53 35° NE 03:40:07 10° NNE visible
28 Sep 3.7 05:18:36 19° NW 05:18:57 19° NW 05:22:55 10° N visible
29 Sep 4.0 03:20:54 27° NE 03:20:54 27° NE 03:23:23 10° NNE visible
29 Sep 3.7 05:02:37 20° NW 05:02:37 20° NW 05:06:19 10° N visible
30 Sep 4.4 03:04:52 20° NE 03:04:52 20° NE 03:06:38 10° NNE visible
30 Sep 3.8 04:46:35 20° NW 04:46:35 20° NW 04:49:42 10° N visible
01 Oct 4.7 02:48:48 16° NE 02:48:48 16° NE 02:49:52 10° NNE visible
01 Oct 3.9 04:30:30 20° NNW 04:30:30 20° NNW 04:33:06 10° N visible
02 Oct 5.0 02:32:41 12° NE 02:32:41 12° NE 02:33:06 10° NE visible
02 Oct 4.1 04:14:24 18° NNW 04:14:24 18° NNW 04:16:27 10° N visible
03 Oct 4.3 03:58:15 17° N 03:58:15 17° N 03:59:50 10° N visible
04 Oct 4.5 03:42:06 15° N 03:42:06 15° N 03:43:11 10° N visible
05 Oct 4.7 03:25:54 13° N 03:25:54 13° N 03:26:32 10° N visible
